Location: Larkspur
(54.4391°N, 113.7691°W)
Time: 17:15:29
(UTC+00:00)

BlueWalker 3 - Visible Passes

Search period start: 10 June 2023 00:00
Search period end: 20 June 2023 00:00
Orbit: 493 x 513 km, 53.2° (Epoch: 09 June)

Date Brightness Start Highest point End Pass type
(mag) Time Alt. Az. Time Alt. Az. Time Alt. Az.
10 Jun 3.6 06:31:58 10° W 06:34:40 18° SW 06:36:05 15° SSW visible
11 Jun 3.7 06:11:31 10° W 06:14:11 18° SW 06:16:01 14° S visible
12 Jun 3.8 05:51:04 10° W 05:53:42 18° SW 05:55:59 11° S visible
13 Jun 3.8 05:30:36 10° W 05:33:11 17° SW 05:35:47 10° S visible
14 Jun 3.9 05:10:08 10° W 05:12:41 17° SW 05:15:13 10° S visible
